This is the latest recevied weather packets stored in our database for station/object HS2LXA-WX. If no packets are shown the sender has not sent any weather packets the latest 10 day(s).
| Time | Temp. | Humidity | Pressure | Rain* | Wind** | Luminosity | Snow |
|---|---|---|---|---|---|---|---|
| 1788590645 | 34.44° C | 76% | 1008.9 hPa | 0 mm | - | - | - |
| 1788590044 | 34.44° C | 75% | 1009.1 hPa | 0 mm | - | - | - |
| 1788589444 | 33.89° C | 76% | 1009.4 hPa | 0 mm | - | - | - |
| 1788588843 | 34.44° C | 76% | 1009.6 hPa | 0 mm | - | - | - |
| 1788588243 | 33.89° C | 77% | 1009.8 hPa | 0 mm | - | - | - |
| 1788587643 | 33.89° C | 77% | 1010 hPa | 0 mm | - | - | - |
| 1788586713 | 33.89° C | 77% | 1010.4 hPa | 0 mm | - | - | - |
| 1788586113 | 33.89° C | 77% | 1010.6 hPa | 0 mm | - | - | - |
| 1788585513 | 33.89° C | 77% | 1010.9 hPa | 0 mm | - | - | - |
| 1788584370 | 33.33° C | 78% | 1011.2 hPa | 0 mm | - | - | - |
| 1788583772 | 33.33° C | 78% | 1011.3 hPa | 0 mm | - | - | - |
| 1788583168 | 33.89° C | 76% | 1011.3 hPa | 0 mm | - | - | - |
| 1788582568 | 33.89° C | 77% | 1011.4 hPa | 0 mm | - | - | - |
| 1788581471 | 33.33° C | 78% | 1011.6 hPa | 0 mm | - | - | - |
| 1788580645 | 32.78° C | 81% | 1011.7 hPa | 0 mm | - | - | - |
| 1788578459 | 33.89° C | 77% | 1011.9 hPa | 0 mm | - | - | - |
| 1788577859 | 33.33° C | 78% | 1011.9 hPa | 0 mm | - | - | - |
| 1788575835 | 32.22° C | 81% | 1012.2 hPa | 0 mm | - | - | - |
| 1788574649 | 32.78° C | 79% | 1012.1 hPa | 0 mm | - | - | - |
| 1788573860 | 33.33° C | 80% | 1012 hPa | 0 mm | - | - | - |
| 1788573259 | 33.33° C | 80% | 1011.9 hPa | 0 mm | - | - | - |
| 1788572659 | 33.33° C | 80% | 1011.8 hPa | 0 mm | - | - | - |
| 1788572059 | 32.78° C | 81% | 1011.8 hPa | 0 mm | - | - | - |
| 1788571233 | 32.22° C | 82% | 1011.9 hPa | 0 mm | - | - | - |
| 1788570636 | 32.22° C | 83% | 1011.7 hPa | 0 mm | - | - | - |
* Rain latest hour (hover to see other rain measurements)
** Current wind speed in m/s (hover to see current wind gust speed)